TIANLIAN 2-01

Last updated on Tue Oct 15 2024 00:02:41 GMT+0000 (Coordinated Universal Time)

1 44076U 19017A 24288.49442431 -.00000109 00000+0 00000+0 0 9993 2 44076 0.0183 208.9719 0001882 17.4624 52.1396 1.00271377 20527
UTC large
Height (km)
Speed (km/s)
/
Latitude / Longitude
Inclination (degrees)
Orbital Period (minutes)
Azimuth
Elevation
Range (km)
Doppler Factor

Next 0 passes for location: London (51.5072 / 0.1276)

Sorry there are no passes over London.